Princeton, MN

10:17 PM CDT on September 18, 2019 (GMT -0500)
Princeton Municipal

Weather History for KPNM - August, 2019

Change the Weather History Date:

Sunday, August 18, 2019

  Actual Average Record
Temperature  
Mean Temperature 63 °F -  
Max Temperature 75 °F 76 °F 95 °F (2003)
Min Temperature 51 °F 54 °F 42 °F (2012)
Degree Days  
Heating Degree Days 2    
Growing Degree Days 13 (Base 50)    
Moisture  
Dew Point 57 °F    
Average Humidity 77    
Maximum Humidity 100    
Minimum Humidity 36    
Precipitation  
Precipitation 0.00 in - - ()
Sea Level Pressure  
Sea Level Pressure 29.79 in    
Wind  
Wind Speed 5 mph (WNW)    
Max Wind Speed 16 mph    
Max Gust Speed 26 mph    
Visibility 10 miles    
Events Rain , Thunderstorm    
Averages and records for this station are not official NWS values.
T = Trace of Precipitation, MM = Missing Value Source: NWS Daily Summary

Daily Weather History Graph

Daily Weather History Graph

Search for Another Location

Airport or City:

Astronomy

Aug. 18, 2019 Rise Set
Actual Time 6:18 AM CDT 8:17 PM CDT
Civil Twilight 5:46 AM CDT 8:49 PM CDT
Nautical Twilight 5:06 AM CDT 9:28 PM CDT
Astronomical Twilight 4:23 AM CDT 10:11 PM CDT
Moon 10:04 PM CDT (8/18) 9:10 AM CDT (8/18)
Length of Visible Light 15h 02m
Length of Day
13h 58m
Waning Gibbous, 91% of the Moon is Illuminated
Aug 18
Waning Gibbous
Aug 23
Last Quarter
Aug 30
New
Sep 5
First Quarter
Sep 13
Full

Hourly Weather History & Observations

Time (CDT) Temp. Dew Point Humidity Pressure Visibility Wind Dir Wind Speed Gust Speed Precip Events Conditions
12:15 AM 66.2 °F 62.6 °F 88% 29.75 in 5.0 mi Calm Calm - N/A Rain , Thunderstorm Heavy Thunderstorms and Rain
12:16 AM 66.2 °F 62.6 °F 88% 29.75 in 4.0 mi Calm Calm - N/A Rain , Thunderstorm Heavy Thunderstorms and Rain
12:39 AM 64.4 °F 62.6 °F 94% 29.72 in 10.0 mi North 5.8 mph - N/A Rain Rain
12:57 AM 64.4 °F 62.6 °F 94% 29.71 in 10.0 mi North 4.6 mph - N/A Rain Rain
1:15 AM 64.4 °F 62.6 °F 94% 29.70 in 10.0 mi North 4.6 mph - N/A Rain Rain
1:16 AM 64.4 °F 62.6 °F 94% 29.70 in 10.0 mi North 4.6 mph - N/A Rain Rain
1:35 AM 64.4 °F 62.6 °F 94% 29.69 in 5.0 mi Calm Calm - N/A Rain Rain
1:36 AM 64.4 °F 62.6 °F 94% 29.70 in 5.0 mi Calm Calm - N/A Rain Rain
1:55 AM 64.4 °F 62.6 °F 94% 29.69 in 10.0 mi ENE 3.5 mph - N/A Rain , Thunderstorm Rain
2:18 AM 64.4 °F 62.6 °F 94% 29.70 in 4.0 mi Calm Calm - N/A Rain , Thunderstorm Rain
2:36 AM 64.4 °F 62.6 °F 94% 29.69 in 4.0 mi Calm Calm - N/A   Overcast
2:55 AM 64.4 °F 62.6 °F 94% 29.68 in 7.0 mi Calm Calm - N/A Rain Heavy Rain
2:56 AM 64.4 °F 62.6 °F 94% 29.68 in 7.0 mi Calm Calm - N/A Rain Heavy Rain
3:15 AM 64.4 °F 62.6 °F 94% 29.68 in 5.0 mi Calm Calm - N/A Rain Rain
3:16 AM 64.4 °F 62.6 °F 94% 29.68 in 5.0 mi Calm Calm - N/A Rain Rain
3:39 AM 64.4 °F 62.6 °F 94% 29.67 in 10.0 mi Calm Calm - N/A Rain Rain
3:57 AM 64.4 °F 62.6 °F 94% 29.63 in 10.0 mi East 5.8 mph - N/A Rain Rain
4:15 AM 64.4 °F 62.6 °F 94% 29.60 in 10.0 mi East 6.9 mph - N/A Rain Light Rain
4:16 AM 64.4 °F 62.6 °F 94% 29.60 in 10.0 mi East 5.8 mph - N/A Rain Light Rain
4:35 AM 64.4 °F 62.6 °F 94% 29.60 in 10.0 mi Calm Calm - N/A Rain Light Rain
4:36 AM 64.4 °F 62.6 °F 94% 29.60 in 10.0 mi Calm Calm - N/A Rain Light Rain
4:55 AM 64.4 °F 62.6 °F 94% 29.64 in 10.0 mi WNW 6.9 mph 23.0 mph N/A   Scattered Clouds
5:18 AM 64.4 °F 62.6 °F 94% 29.66 in 10.0 mi West 6.9 mph - N/A   Clear
5:36 AM 62.6 °F 62.6 °F 100% 29.64 in 10.0 mi WNW 8.1 mph - N/A   Scattered Clouds
5:55 AM 62.6 °F 62.6 °F 100% 29.65 in 10.0 mi West 9.2 mph - N/A   Mostly Cloudy
5:56 AM 62.6 °F 62.6 °F 100% 29.65 in 10.0 mi West 11.5 mph 18.4 mph N/A   Mostly Cloudy
6:15 AM 62.6 °F 62.6 °F 100% 29.66 in 10.0 mi West 12.7 mph 18.4 mph N/A   Overcast
6:16 AM 62.6 °F 62.6 °F 100% 29.66 in 10.0 mi West 12.7 mph 18.4 mph N/A   Overcast
6:39 AM 64.4 °F 62.6 °F 94% 29.68 in 10.0 mi West 8.1 mph 16.1 mph N/A   Overcast
6:57 AM 64.4 °F 62.6 °F 94% 29.69 in 10.0 mi WNW 6.9 mph - N/A   Overcast
7:15 AM 64.4 °F 62.6 °F 94% 29.71 in 10.0 mi WNW 6.9 mph - N/A   Overcast
7:35 AM 64.4 °F 62.6 °F 94% 29.71 in 10.0 mi WNW 3.5 mph - N/A   Mostly Cloudy
7:55 AM 64.4 °F 62.6 °F 94% 29.73 in 10.0 mi West 5.8 mph - N/A   Mostly Cloudy
7:59 AM 64.4 °F 62.6 °F 94% 29.73 in 10.0 mi West 8.1 mph - N/A   Mostly Cloudy
8:17 AM 64.4 °F 62.6 °F 94% 29.75 in 10.0 mi West 5.8 mph - N/A   Overcast
8:35 AM 64.4 °F 62.6 °F 94% 29.76 in 10.0 mi West 9.2 mph - N/A   Overcast
8:55 AM 64.4 °F 62.6 °F 94% 29.77 in 10.0 mi WNW 5.8 mph - N/A   Overcast
8:56 AM 64.4 °F 62.6 °F 94% 29.77 in 10.0 mi WNW 4.6 mph - N/A   Overcast
9:15 AM 68.0 °F 62.6 °F 83% 29.78 in 10.0 mi West 5.8 mph - N/A   Scattered Clouds
9:20 AM 68.0 °F 62.6 °F 83% 29.77 in 10.0 mi West 4.6 mph - N/A   Scattered Clouds
9:37 AM 69.8 °F 62.6 °F 78% 29.78 in 10.0 mi WNW 9.2 mph - N/A   Scattered Clouds
9:56 AM 69.8 °F 62.6 °F 78% 29.78 in 10.0 mi West 9.2 mph - N/A   Mostly Cloudy
10:15 AM 69.8 °F 60.8 °F 73% 29.79 in 10.0 mi West 16.1 mph 19.6 mph N/A   Mostly Cloudy
10:16 AM 69.8 °F 60.8 °F 73% 29.79 in 10.0 mi West 15.0 mph 19.6 mph N/A   Mostly Cloudy
10:35 AM 69.8 °F 60.8 °F 73% 29.80 in 10.0 mi WNW 12.7 mph 16.1 mph N/A   Scattered Clouds
10:36 AM 69.8 °F 60.8 °F 73% 29.80 in 10.0 mi WNW 12.7 mph 16.1 mph N/A   Scattered Clouds
10:59 AM 69.8 °F 59.0 °F 68% 29.81 in 10.0 mi West 13.8 mph 20.7 mph N/A   Scattered Clouds
11:17 AM 69.8 °F 57.2 °F 64% 29.81 in 10.0 mi WNW 10.4 mph 18.4 mph N/A   Scattered Clouds
11:35 AM 69.8 °F 57.2 °F 64% 29.82 in 10.0 mi West 10.4 mph - N/A   Clear
11:55 AM 69.8 °F 55.4 °F 60% 29.82 in 10.0 mi WNW 10.4 mph 18.4 mph N/A   Scattered Clouds
12:15 PM 71.6 °F 57.2 °F 60% 29.83 in 10.0 mi West 11.5 mph 18.4 mph N/A   Scattered Clouds
12:20 PM 71.6 °F 57.2 °F 60% 29.82 in 10.0 mi West 10.4 mph 18.4 mph N/A   Scattered Clouds
12:38 PM 71.6 °F 55.4 °F 57% 29.82 in 10.0 mi WNW 9.2 mph 21.9 mph N/A   Clear
12:56 PM 71.6 °F 55.4 °F 57% 29.83 in 7.0 mi WNW 6.9 mph 18.4 mph N/A   Scattered Clouds
1:15 PM 71.6 °F 53.6 °F 53% 29.84 in 10.0 mi West 15.0 mph 26.5 mph N/A   Scattered Clouds
1:35 PM 71.6 °F 53.6 °F 53% 29.84 in 10.0 mi WNW 13.8 mph 17.3 mph N/A   Clear
1:59 PM 73.4 °F 51.8 °F 47% 29.84 in 10.0 mi West 11.5 mph 20.7 mph N/A   Scattered Clouds
2:17 PM 73.4 °F 53.6 °F 50% 29.84 in 10.0 mi West 11.5 mph 20.7 mph N/A   Scattered Clouds
2:35 PM 75.2 °F 53.6 °F 47% 29.85 in 10.0 mi West 12.7 mph 18.4 mph N/A   Clear
2:55 PM 73.4 °F 50.0 °F 44% 29.85 in 10.0 mi West 16.1 mph 19.6 mph N/A   Clear
3:15 PM 73.4 °F 50.0 °F 44% 29.85 in 10.0 mi West 10.4 mph 19.6 mph N/A   Clear
3:19 PM 75.2 °F 50.0 °F 41% 29.85 in 10.0 mi West 10.4 mph 19.6 mph N/A   Clear
3:38 PM 73.4 °F 48.2 °F 41% 29.85 in 10.0 mi West 12.7 mph 20.7 mph N/A   Clear
3:56 PM 73.4 °F 48.2 °F 41% 29.85 in 10.0 mi West 11.5 mph 20.7 mph N/A   Clear
4:15 PM 73.4 °F 48.2 °F 41% 29.85 in 10.0 mi West 16.1 mph 20.7 mph N/A   Clear
4:35 PM 73.4 °F 48.2 °F 41% 29.85 in 10.0 mi West 10.4 mph 21.9 mph N/A   Clear
4:59 PM 73.4 °F 44.6 °F 36% 29.86 in 10.0 mi WNW 12.7 mph - N/A   Clear
5:17 PM 73.4 °F 46.4 °F 38% 29.86 in 10.0 mi WNW 10.4 mph - N/A   Clear
5:35 PM 73.4 °F 48.2 °F 41% 29.86 in 10.0 mi WNW 5.8 mph 16.1 mph N/A   Clear
5:55 PM 73.4 °F 46.4 °F 38% 29.86 in 10.0 mi West 10.4 mph 17.3 mph N/A   Clear
6:15 PM 71.6 °F 48.2 °F 43% 29.87 in 10.0 mi West 5.8 mph - N/A   Clear
6:38 PM 71.6 °F 50.0 °F 46% 29.87 in 10.0 mi West 8.1 mph - N/A   Clear
6:56 PM 71.6 °F 48.2 °F 43% 29.87 in 10.0 mi West 6.9 mph - N/A   Clear
7:15 PM 69.8 °F 51.8 °F 53% 29.87 in 10.0 mi West 3.5 mph - N/A   Clear
7:16 PM 69.8 °F 51.8 °F 53% 29.87 in 10.0 mi West 3.5 mph - N/A   Clear
7:35 PM 69.8 °F 51.8 °F 53% 29.88 in 10.0 mi Calm Calm - N/A   Clear
7:36 PM 69.8 °F 51.8 °F 53% 29.88 in 10.0 mi Calm Calm - N/A   Clear
7:59 PM 66.2 °F 53.6 °F 64% 29.88 in 10.0 mi WSW 3.5 mph - N/A   Clear
8:17 PM 64.4 °F 53.6 °F 68% 29.88 in 10.0 mi Calm Calm - N/A   Clear
8:35 PM 59.0 °F 53.6 °F 82% 29.89 in 10.0 mi Calm Calm - N/A   Clear
8:55 PM 57.2 °F 53.6 °F 88% 29.90 in 10.0 mi Calm Calm - N/A   Clear
8:56 PM 57.2 °F 53.6 °F 88% 29.90 in 10.0 mi Calm Calm - N/A   Clear
9:15 PM 57.2 °F 53.6 °F 88% 29.91 in 10.0 mi Calm Calm - N/A   Clear
9:20 PM 57.2 °F 53.6 °F 88% 29.91 in 10.0 mi Calm Calm - N/A   Clear
9:38 PM 55.4 °F 53.6 °F 94% 29.91 in 10.0 mi Calm Calm - N/A   Clear
9:56 PM 55.4 °F 53.6 °F 94% 29.91 in 10.0 mi Calm Calm - N/A   Clear
10:15 PM 53.6 °F 51.8 °F 94% 29.91 in 10.0 mi Calm Calm - N/A   Clear
10:16 PM 53.6 °F 51.8 °F 94% 29.91 in 10.0 mi Calm Calm - N/A   Clear
10:35 PM 53.6 °F 51.8 °F 94% 29.92 in 10.0 mi Calm Calm - N/A   Clear
10:40 PM 53.6 °F 51.8 °F 94% 29.92 in 10.0 mi Calm Calm - N/A   Clear
10:58 PM 53.6 °F 51.8 °F 94% 29.93 in 10.0 mi Calm Calm - N/A   Clear
11:16 PM 53.6 °F 51.8 °F 94% 29.93 in 10.0 mi Calm Calm - N/A   Clear
11:35 PM 53.6 °F 51.8 °F 94% 29.94 in 10.0 mi Calm Calm - N/A   Clear
11:36 PM 51.8 °F 51.8 °F 100% 29.94 in 10.0 mi Calm Calm - N/A   Clear
11:55 PM 51.8 °F 50.0 °F 94% 29.94 in 10.0 mi Calm Calm - N/A   Clear